Flag for Brazil Weather past 2 weeks in Pirassununga, São Paulo, Brazil

Now
70 °F

Clear.


Feels Like: 70 °F
Forecast: 50 / 91 °F
Wind: 9 mph from South

Location: Pirassununga Airport

Current Time: Aug 30, 2014 at 9:30:24 PM

Latest Report: Aug 30, 2014 at 8:00 PM


Visibility: 10 mi

Pressure: 30.07 "Hg

Humidity: 53%

Dew point: 52 °F

Location of PirassunungaLocation

Historic Weather in Pirassununga — Graph

°F

Pirassununga temperature yesterday

Maximum temperature yesterday: 81 °F (at 3:00 PM)
Minimum temperature yesterday: 50 °F (at 6:00 AM)
Average temperature yesterday: 67 °F

Past Weeks' High & Low Weather Summary

 TemperatureHumidityPressure
High90 °F (Aug 25, 1:00 PM)100% (Aug 18, 6:00 AM)30.33 "Hg (Aug 18, 6:00 AM)
Low46 °F (Aug 20, 6:00 AM)17% (Aug 24, 2:00 PM)29.92 "Hg (Aug 25, 3:00 PM)
Average71 °F53%30.11 "Hg
* Reported Aug 15 8:00 PM — Aug 30 8:00 PM, Pirassununga, Weather by CustomWeather, © 2014

Note: Actual official high and low records may vary slightly from our data, if they occured in-between our weather recording intervals... More about our weather records

Advertising

Pirassununga weather history for previous 24 hours

 ConditionsComfort  
Time TempWeatherWind HumidityBarometerVisibility
8:00 PM
Aug 30
70 °FClear.9 mph53%30.07 "Hg10 mi
7:00 PM75 °FClear.5 mph44%30.07 "Hg10 mi
6:00 PM79 °FClear.7 mph39%30.04 "Hg10 mi
5:00 PM84 °FClear.7 mph35%30.04 "Hg10 mi
4:00 PM86 °FSunny.7 mph31%30.04 "Hg10 mi
3:00 PM86 °FSunny.8 mph33%30.04 "Hg10 mi
2:00 PM84 °FSunny.2 mph35%30.07 "Hg10 mi
1:00 PM82 °FSunny.3 mph37%30.09 "Hg10 mi
12:00 PM79 °FSunny.5 mph42%30.12 "Hg10 mi
11:00 AM75 °FSunny.2 mph47%30.15 "Hg10 mi
10:00 AM68 °FClear.2 mph60%30.18 "Hg6 mi
9:00 AM61 °FHaze.6 mph77%30.18 "Hg3 mi
8:00 AM55 °FFog.5 mph88%30.15 "Hg2 mi
7:00 AM52 °FFog.3 mph94%30.15 "Hg2 mi
6:00 AM52 °FFog.3 mph94%30.12 "Hg2 mi
11:00 PM
Aug 29
64 °FClear.8 mph64%30.12 "Hg10 mi
10:00 PM63 °FClear.3 mph68%30.12 "Hg10 mi
9:00 PM66 °FClear.6 mph60%30.12 "Hg10 mi
Weather by CustomWeather, © 2014

See weather overviewHow to use our weather pages